contact:dominique.lefevre@mio.osupytheas.fr, maurice.libes@osupytheas.fr, didier.mallarino@osupytheas.fr
Project:EMSO http://www.emso-fr.org/EMSO-France
Depth: 2436.0 m
Title:EMSO Ligure Ouest : Data MII capteur AQUADOPP
Date,Latitude,Longitude,X_East,Y_North,Z_Up,Amplitude_X,Amplitude_Y,Amplitude_Z,Batterie,SoundSpeed,Heading,Pitch,Roll,Pressure,TIS,Speed,Direction
, degrees North, degrees East, m.s-1, m.s-1,m.s-1, 1, 1, 1, Volt, m.s-1, degree, degree, degree, dbar, degree_C, m.s-1, degree
2023-02-05T17:10:00,42.805,6.029,-0.001,0.004,0.011,102.0,103.0,102.0,13.4,1505.2,333.8,-0.7,1.9,2471.523,13.28,0.004,346.0
2023-02-05T17:13:03,42.805,6.029,-0.002,-0.006,-0.01,102.0,102.0,101.0,13.3,1505.2,331.9,-0.8,1.8,2471.292,13.28,0.006,198.4
2023-02-05T17:16:03,42.805,6.029,-0.018,0.0,-0.052,103.0,101.0,102.0,13.3,1505.2,339.5,-0.8,1.8,2471.08,13.28,0.018,270.0
2023-02-05T17:19:03,42.805,6.029,-0.024,0.009,-0.003,102.0,102.0,102.0,13.3,1505.2,334.2,-0.8,1.8,2470.998,13.29,0.025,290.6
2023-02-05T17:22:03,42.805,6.029,-0.016,0.007,-0.005,102.0,102.0,104.0,13.3,1505.2,320.2,-0.8,1.8,2470.943,13.29,0.017,293.6
2023-02-05T17:25:03,42.805,6.029,0.0,-0.011,0.002,102.0,102.0,101.0,13.4,1505.2,333.4,-0.8,1.8,2470.946,13.29,0.011,180.0
2023-02-05T17:28:03,42.805,6.029,-0.006,-0.023,-0.043,102.0,102.0,102.0,13.3,1505.2,327.8,-0.8,1.8,2470.905,13.29,0.023,194.6
2023-02-05T17:31:03,42.805,6.029,-0.012,-0.014,-0.015,103.0,101.0,100.0,13.4,1505.2,323.1,-0.8,1.8,2470.913,13.29,0.018,220.6
2023-02-05T17:34:03,42.805,6.029,-0.001,-0.012,-0.01,102.0,103.0,103.0,13.4,1505.2,328.7,-0.8,1.8,2470.956,13.29,0.012,184.8
2023-02-05T17:37:03,42.805,6.029,0.003,0.012,-0.02,103.0,104.0,101.0,13.4,1505.2,330.9,-0.7,1.8,2470.987,13.29,0.012,14.0
2023-02-05T17:40:03,42.805,6.029,-0.002,0.022,0.005,103.0,102.0,101.0,13.4,1505.2,329.0,-0.8,1.8,2470.975,13.29,0.022,354.8
2023-02-05T17:43:03,42.805,6.029,-0.001,0.002,-0.022,102.0,102.0,102.0,13.3,1505.2,325.5,-0.8,1.8,2470.984,13.29,0.002,333.4
2023-02-05T17:46:03,42.805,6.029,-0.035,0.02,-0.013,102.0,103.0,101.0,13.3,1505.2,331.3,-0.8,1.8,2470.951,13.29,0.04,299.7
2023-02-05T17:49:03,42.805,6.029,0.003,0.004,0.002,103.0,103.0,101.0,13.4,1505.2,329.0,-0.8,1.8,2471.017,13.29,0.005,36.9
2023-02-05T17:52:03,42.805,6.029,0.0,-0.028,-0.019,103.0,102.0,102.0,13.4,1505.2,324.6,-0.8,1.8,2470.988,13.29,0.028,180.0
2023-02-05T17:55:03,42.805,6.029,0.0,-0.009,0.01,102.0,102.0,101.0,13.3,1505.2,321.0,-0.8,1.8,2470.989,13.29,0.009,180.0
2023-02-05T17:58:03,42.805,6.029,0.0,0.005,0.002,103.0,102.0,102.0,13.4,1505.2,320.1,-0.8,1.8,2471.024,13.29,0.005,0.0
2023-02-05T18:04:03,42.805,6.029,-0.013,-0.004,-0.021,101.0,103.0,102.0,13.3,1505.2,325.0,-0.7,1.8,2471.118,13.29,0.013,252.9
2023-02-05T18:07:03,42.805,6.029,-0.026,0.006,-0.007,100.0,104.0,102.0,13.3,1505.2,321.0,-0.8,1.9,2471.13,13.29,0.026,283.0
2023-02-05T18:10:03,42.805,6.029,0.009,-0.003,0.006,104.0,102.0,101.0,13.4,1505.2,333.0,-0.8,1.8,2471.097,13.29,0.009,108.4
2023-02-05T18:13:03,42.805,6.029,-0.016,0.004,0.008,101.0,102.0,102.0,13.4,1505.2,333.8,-0.7,1.8,2471.045,13.29,0.016,284.0
2023-02-05T18:16:03,42.805,6.029,-0.004,-0.01,-0.015,103.0,102.0,102.0,13.3,1505.2,323.4,-0.8,1.8,2471.044,13.29,0.01,201.8
2023-02-05T18:19:03,42.805,6.029,-0.037,-0.021,-0.025,103.0,102.0,102.0,13.3,1505.2,318.1,-0.8,1.8,2471.001,13.29,0.042,240.4
2023-02-05T18:22:03,42.805,6.029,-0.02,0.01,-0.003,101.0,102.0,102.0,13.4,1505.2,317.1,-0.8,1.8,2471.026,13.29,0.022,296.6
2023-02-05T18:25:03,42.805,6.029,0.0,0.001,-0.001,102.0,103.0,102.0,13.3,1505.2,319.2,-0.8,1.8,2471.065,13.29,0.001,0.0
2023-02-05T18:28:03,42.805,6.029,-0.029,-0.004,-0.019,103.0,101.0,102.0,13.3,1505.2,314.4,-0.8,1.8,2471.07,13.29,0.029,262.2
2023-02-05T18:31:03,42.805,6.029,-0.005,0.002,0.0,102.0,102.0,102.0,13.3,1505.2,326.5,-0.8,1.8,2471.053,13.29,0.005,291.8
2023-02-05T18:34:03,42.805,6.029,-0.004,-0.012,-0.001,102.0,101.0,103.0,13.4,1505.2,318.6,-0.8,1.8,2471.063,13.29,0.012,198.4
2023-02-05T18:37:03,42.805,6.029,-0.013,0.0,0.001,106.0,103.0,102.0,13.4,1505.2,329.3,-0.8,1.9,2471.053,13.29,0.013,270.0
2023-02-05T18:40:03,42.805,6.029,0.004,-0.035,-0.023,102.0,101.0,102.0,13.4,1505.2,338.5,-0.8,1.8,2471.024,13.29,0.035,173.5
2023-02-05T18:43:03,42.805,6.029,-0.012,0.001,0.001,103.0,100.0,101.0,13.3,1505.2,317.6,-0.8,1.8,2471.054,13.29,0.012,274.8
2023-02-05T18:46:03,42.805,6.029,0.0,-0.013,-0.025,100.0,103.0,101.0,13.4,1505.2,316.6,-0.8,1.8,2471.052,13.29,0.013,180.0
2023-02-05T18:49:03,42.805,6.029,-0.006,-0.016,-0.032,100.0,103.0,102.0,13.3,1505.2,329.6,-0.7,1.8,2471.033,13.29,0.017,200.6
2023-02-05T18:52:03,42.805,6.029,-0.007,-0.004,-0.017,103.0,101.0,101.0,13.4,1505.2,328.4,-0.8,1.8,2471.06,13.29,0.008,240.3
2023-02-05T18:55:03,42.805,6.029,-0.019,-0.009,0.003,102.0,103.0,101.0,13.3,1505.2,322.3,-0.7,1.8,2471.059,13.29,0.021,244.7
2023-02-05T18:58:03,42.805,6.029,-0.013,-0.003,-0.04,102.0,101.0,102.0,13.4,1505.2,324.6,-0.8,1.8,2471.064,13.29,0.013,257.0
2023-02-05T19:04:03,42.805,6.029,-0.009,-0.005,0.0,102.0,101.0,101.0,13.4,1505.2,325.4,-0.8,1.8,2471.167,13.29,0.01,240.9
2023-02-05T19:07:03,42.805,6.029,-0.002,-0.015,-0.044,102.0,102.0,102.0,13.3,1505.2,329.1,-0.8,1.8,2471.125,13.29,0.015,187.6
2023-02-05T19:10:03,42.805,6.029,-0.012,-0.017,-0.043,103.0,103.0,101.0,13.3,1505.2,324.4,-0.7,1.8,2471.122,13.29,0.02,215.2
2023-02-05T19:13:03,42.805,6.029,-0.019,-0.017,-0.025,102.0,103.0,101.0,13.4,1505.2,321.4,-0.8,1.8,2471.057,13.29,0.025,228.2
2023-02-05T19:16:03,42.805,6.029,-0.004,-0.003,-0.02,101.0,102.0,101.0,13.4,1505.2,334.2,-0.8,1.8,2471.069,13.29,0.005,233.1
2023-02-05T19:19:03,42.805,6.029,-0.015,0.01,0.02,102.0,102.0,101.0,13.4,1505.2,338.5,-0.8,1.8,2471.108,13.29,0.018,303.7
2023-02-05T19:22:03,42.805,6.029,-0.027,0.007,-0.004,104.0,102.0,100.0,13.4,1505.2,333.8,-0.7,1.8,2471.033,13.29,0.027,284.5
2023-02-05T19:25:03,42.805,6.029,0.002,0.009,0.036,103.0,101.0,100.0,13.4,1505.2,320.8,-0.7,1.8,2471.042,13.29,0.009,12.5
2023-02-05T19:28:03,42.805,6.029,-0.017,-0.005,-0.011,102.0,101.0,100.0,13.4,1505.2,333.0,-0.8,1.8,2471.077,13.29,0.017,253.6
2023-02-05T19:31:03,42.805,6.029,-0.024,-0.008,-0.024,102.0,101.0,101.0,13.4,1505.2,337.8,-0.8,1.8,2471.087,13.29,0.025,251.6
2023-02-05T19:34:03,42.805,6.029,-0.017,-0.005,-0.018,102.0,101.0,102.0,13.3,1505.2,333.4,-0.8,1.8,2471.061,13.29,0.017,253.6
2023-02-05T19:37:03,42.805,6.029,-0.03,-0.014,0.0,101.0,102.0,101.0,13.3,1505.2,318.6,-0.8,1.8,2471.076,13.29,0.033,245.0
2023-02-05T19:40:03,42.805,6.029,-0.017,-0.015,-0.044,102.0,102.0,101.0,13.4,1505.2,321.0,-0.8,1.8,2471.046,13.29,0.022,228.6
2023-02-05T19:43:03,42.805,6.029,-0.03,0.01,0.002,101.0,102.0,102.0,13.4,1505.2,330.4,-0.8,1.8,2471.084,13.29,0.031,288.4
2023-02-05T19:46:03,42.805,6.029,0.008,0.004,0.0,102.0,102.0,102.0,13.4,1505.2,326.3,-0.7,1.8,2471.058,13.29,0.008,63.4
2023-02-05T19:49:03,42.805,6.029,-0.022,-0.004,-0.036,103.0,101.0,101.0,13.3,1505.2,325.3,-0.8,1.8,2471.026,13.29,0.022,259.7
2023-02-05T19:52:03,42.805,6.029,-0.026,0.006,0.006,102.0,101.0,101.0,13.3,1505.2,327.8,-0.8,1.8,2471.08,13.29,0.026,283.0
2023-02-05T19:55:03,42.805,6.029,-0.006,0.008,0.008,103.0,102.0,101.0,13.3,1505.2,333.4,-0.8,1.8,2471.058,13.29,0.01,323.1
2023-02-05T19:58:03,42.805,6.029,-0.016,-0.005,-0.002,101.0,102.0,102.0,13.4,1505.2,326.3,-0.8,1.8,2471.116,13.29,0.016,252.6
2023-02-05T20:04:03,42.805,6.029,-0.04,0.007,-0.029,101.0,101.0,101.0,13.4,1505.2,324.0,-0.8,1.8,2471.168,13.29,0.04,279.9
2023-02-05T20:07:03,42.805,6.029,-0.007,-0.009,0.01,101.0,102.0,101.0,13.3,1505.2,320.1,-0.8,1.8,2471.157,13.29,0.011,217.9
2023-02-05T20:10:03,42.805,6.029,-0.019,0.0,-0.031,102.0,101.0,101.0,13.3,1505.2,331.8,-0.8,1.8,2471.129,13.29,0.019,270.0
2023-02-05T20:13:03,42.805,6.029,-0.025,0.0,-0.037,102.0,102.0,101.0,13.3,1505.2,327.9,-0.8,1.8,2471.103,13.29,0.025,270.0
2023-02-05T20:16:03,42.805,6.029,-0.01,0.003,0.002,102.0,101.0,101.0,13.4,1505.2,321.3,-0.7,1.8,2471.088,13.29,0.01,286.7
2023-02-05T20:19:03,42.805,6.029,-0.026,-0.009,-0.03,101.0,102.0,102.0,13.4,1505.2,321.8,-0.8,1.8,2471.056,13.29,0.027,250.9
2023-02-05T20:22:03,42.805,6.029,-0.02,-0.009,-0.013,100.0,104.0,102.0,13.4,1505.2,333.0,-0.8,1.8,2471.09,13.29,0.021,245.8
2023-02-05T20:25:03,42.805,6.029,-0.02,-0.004,-0.02,101.0,103.0,102.0,13.3,1505.2,319.2,-0.8,1.8,2471.097,13.29,0.02,258.7
2023-02-05T20:28:03,42.805,6.029,-0.014,-0.006,0.008,102.0,102.0,101.0,13.4,1505.2,330.6,-0.8,1.8,2471.078,13.29,0.015,246.8
2023-02-05T20:31:03,42.805,6.029,-0.038,-0.022,-0.034,100.0,104.0,101.0,13.4,1505.2,323.2,-0.8,1.8,2471.042,13.29,0.043,239.9
2023-02-05T20:34:03,42.805,6.029,-0.011,-0.014,0.02,102.0,102.0,103.0,13.3,1505.2,332.1,-0.8,1.8,2471.058,13.29,0.017,218.2
2023-02-05T20:37:03,42.805,6.029,-0.014,-0.012,-0.015,104.0,103.0,100.0,13.4,1505.2,323.4,-0.8,1.8,2471.094,13.29,0.018,229.4
2023-02-05T20:40:03,42.805,6.029,-0.02,0.0,-0.014,102.0,102.0,101.0,13.4,1505.2,330.7,-0.8,1.8,2471.036,13.29,0.02,270.0
2023-02-05T20:43:03,42.805,6.029,-0.013,-0.002,0.026,103.0,102.0,102.0,13.3,1505.2,320.5,-0.7,1.8,2471.048,13.29,0.013,261.3
2023-02-05T20:46:03,42.805,6.029,-0.035,-0.008,-0.025,101.0,104.0,101.0,13.3,1505.2,318.0,-0.8,1.8,2471.079,13.29,0.035,257.1
2023-02-05T20:49:03,42.805,6.029,-0.043,-0.015,-0.014,102.0,102.0,102.0,13.4,1505.2,318.6,-0.8,1.8,2471.051,13.29,0.045,250.8
2023-02-05T20:52:03,42.805,6.029,-0.04,-0.005,-0.001,103.0,102.0,101.0,13.4,1505.2,316.6,-0.8,1.8,2471.067,13.29,0.04,262.9
2023-02-05T20:55:03,42.805,6.029,0.002,0.0,0.016,102.0,102.0,102.0,13.4,1505.2,331.3,-0.8,1.8,2471.059,13.29,0.002,90.0
2023-02-05T20:58:03,42.805,6.029,-0.01,-0.015,-0.006,103.0,103.0,101.0,13.4,1505.2,320.7,-0.7,1.8,2471.069,13.29,0.018,213.7
2023-02-05T21:04:03,42.805,6.029,-0.034,0.004,-0.011,104.0,105.0,103.0,13.3,1505.2,339.1,-0.8,1.9,2471.103,13.29,0.034,276.7
2023-02-05T21:07:03,42.805,6.029,-0.026,-0.015,-0.037,103.0,104.0,104.0,13.3,1505.2,318.1,-0.7,1.8,2471.15,13.29,0.03,240.0
2023-02-05T21:10:03,42.805,6.029,-0.042,0.004,-0.001,104.0,105.0,102.0,13.3,1505.2,319.7,-0.8,1.8,2471.087,13.29,0.042,275.4
2023-02-05T21:13:03,42.805,6.029,-0.022,0.002,-0.019,105.0,103.0,102.0,13.3,1505.2,332.6,-0.8,1.8,2471.081,13.29,0.022,275.2
2023-02-05T21:16:03,42.805,6.029,-0.027,-0.007,-0.012,103.0,104.0,102.0,13.3,1505.2,332.1,-0.8,1.8,2471.099,13.29,0.027,255.5
2023-02-05T21:19:03,42.805,6.029,-0.02,0.003,-0.006,105.0,102.0,103.0,13.3,1505.2,335.2,-0.8,1.8,2471.072,13.29,0.02,278.5
2023-02-05T21:22:03,42.805,6.029,-0.022,0.01,0.0,104.0,102.0,102.0,13.3,1505.2,321.6,-0.7,1.8,2471.045,13.29,0.024,294.4
2023-02-05T21:25:03,42.805,6.029,-0.023,0.017,0.005,104.0,103.0,101.0,13.4,1505.2,322.9,-0.8,1.8,2471.084,13.29,0.028,306.5
2023-02-05T21:28:03,42.805,6.029,-0.034,0.027,0.025,103.0,103.0,102.0,13.3,1505.2,321.2,-0.8,1.8,2471.073,13.29,0.043,308.5
2023-02-05T21:31:03,42.805,6.029,-0.045,0.034,-0.001,103.0,104.0,102.0,13.3,1505.2,328.3,-0.7,1.8,2471.06,13.29,0.056,307.1
2023-02-05T21:34:03,42.805,6.029,-0.012,0.006,-0.009,103.0,103.0,102.0,13.4,1505.2,328.8,-0.8,1.8,2471.055,13.29,0.013,296.6
2023-02-05T21:37:03,42.805,6.029,-0.014,-0.001,-0.027,101.0,104.0,103.0,13.4,1505.2,331.9,-0.7,1.8,2471.037,13.29,0.014,265.9
2023-02-05T21:40:03,42.805,6.029,-0.034,0.003,-0.01,102.0,104.0,101.0,13.3,1505.2,334.3,-0.8,1.8,2471.07,13.29,0.034,275.0
2023-02-05T21:43:03,42.805,6.029,-0.047,0.013,0.014,103.0,103.0,102.0,13.4,1505.2,326.3,-0.8,1.8,2471.046,13.29,0.048,285.5
2023-02-05T21:46:03,42.805,6.029,-0.023,0.004,-0.022,103.0,103.0,102.0,13.4,1505.2,329.0,-0.8,1.8,2471.035,13.29,0.023,279.9
2023-02-05T21:49:03,42.805,6.029,-0.021,0.007,0.007,105.0,102.0,101.0,13.4,1505.2,329.1,-0.8,1.8,2471.011,13.29,0.022,288.4
2023-02-05T21:52:03,42.805,6.029,-0.025,0.0,-0.013,104.0,103.0,102.0,13.3,1505.2,320.8,-0.8,1.8,2471.045,13.29,0.025,270.0
2023-02-05T21:55:03,42.805,6.029,-0.015,0.004,0.011,104.0,103.0,102.0,13.4,1505.2,323.2,-0.8,1.8,2471.053,13.29,0.015,284.9
2023-02-05T21:58:03,42.805,6.029,-0.053,0.02,-0.031,103.0,103.0,102.0,13.4,1505.2,326.8,-0.8,1.8,2471.014,13.29,0.056,290.7
2023-02-05T22:04:03,42.805,6.029,-0.021,0.001,-0.006,103.0,103.0,102.0,13.4,1505.2,319.8,-0.8,1.9,2471.099,13.29,0.021,272.7
2023-02-05T22:07:03,42.805,6.029,-0.022,-0.007,-0.011,104.0,103.0,103.0,13.3,1505.2,321.3,-0.7,1.8,2471.058,13.29,0.023,252.4
2023-02-05T22:10:03,42.805,6.029,-0.022,0.039,-0.021,104.0,104.0,102.0,13.4,1505.2,336.4,-0.8,1.8,2471.086,13.29,0.044,330.6
2023-02-05T22:13:03,42.805,6.029,-0.032,0.006,-0.012,103.0,102.0,104.0,13.4,1505.2,337.4,-0.8,1.8,2471.039,13.29,0.032,280.6
2023-02-05T22:16:03,42.805,6.029,-0.004,0.001,-0.008,105.0,105.0,101.0,13.3,1505.2,335.5,-0.8,1.8,2471.041,13.29,0.004,284.0
2023-02-05T22:19:03,42.805,6.029,-0.034,0.007,0.0,104.0,104.0,102.0,13.3,1505.2,315.0,-0.8,1.8,2471.032,13.29,0.034,281.6
2023-02-05T22:22:03,42.805,6.029,-0.032,0.024,-0.008,103.0,105.0,102.0,13.3,1505.2,329.8,-0.7,1.8,2470.99,13.29,0.04,306.9
2023-02-05T22:25:03,42.805,6.029,-0.041,-0.003,-0.032,103.0,104.0,102.0,13.3,1505.2,323.9,-0.7,1.8,2471.008,13.29,0.041,265.8
2023-02-05T22:28:03,42.805,6.029,-0.037,0.0,-0.009,103.0,104.0,102.0,13.4,1505.2,324.6,-0.7,1.8,2470.992,13.29,0.037,270.0
2023-02-05T22:31:03,42.805,6.029,-0.019,0.021,-0.015,103.0,103.0,103.0,13.3,1505.2,329.3,-0.8,1.8,2471.006,13.29,0.028,317.9
2023-02-05T22:34:03,42.805,6.029,-0.032,0.004,-0.026,104.0,102.0,102.0,13.4,1505.2,322.9,-0.7,1.8,2471.001,13.29,0.032,277.1
2023-02-05T22:37:03,42.805,6.029,-0.046,0.026,-0.017,103.0,103.0,104.0,13.4,1505.2,322.9,-0.7,1.8,2471.01,13.29,0.052,299.5
2023-02-05T22:40:03,42.805,6.029,-0.041,0.005,-0.025,103.0,104.0,102.0,13.4,1505.2,325.5,-0.8,1.8,2470.999,13.29,0.041,277.0
2023-02-05T22:43:03,42.805,6.029,-0.026,-0.002,-0.007,104.0,104.0,102.0,13.4,1505.2,330.0,-0.7,1.8,2470.994,13.29,0.026,265.6
2023-02-05T22:46:03,42.805,6.029,-0.035,0.026,-0.003,103.0,104.0,102.0,13.4,1505.2,339.5,-0.8,1.8,2471.027,13.29,0.043,306.6
2023-02-05T22:49:03,42.805,6.029,-0.028,-0.006,-0.026,104.0,103.0,103.0,13.4,1505.2,318.5,-0.8,1.8,2471.013,13.29,0.028,257.9
2023-02-05T22:52:03,42.805,6.029,-0.014,0.011,-0.02,105.0,104.0,102.0,13.3,1505.2,328.8,-0.8,1.8,2471.01,13.29,0.017,308.2
2023-02-05T22:55:03,42.805,6.029,-0.035,0.004,0.018,103.0,103.0,102.0,13.4,1505.2,328.3,-0.8,1.8,2470.975,13.29,0.035,276.5
2023-02-05T22:58:03,42.805,6.029,-0.04,0.013,0.005,103.0,103.0,103.0,13.4,1505.2,322.7,-0.7,1.8,2471.022,13.29,0.042,288.0
2023-02-05T23:04:03,42.805,6.029,-0.023,-0.017,-0.031,103.0,103.0,102.0,13.3,1505.2,336.9,-0.8,1.8,2471.063,13.29,0.028,233.5
2023-02-05T23:07:03,42.805,6.029,-0.021,0.013,0.036,104.0,102.0,102.0,13.3,1505.2,321.3,-0.8,1.9,2471.078,13.29,0.024,301.8
2023-02-05T23:10:03,42.805,6.029,-0.051,-0.001,-0.014,104.0,104.0,102.0,13.4,1505.2,323.4,-0.7,1.8,2471.046,13.29,0.051,268.9
2023-02-05T23:13:03,42.805,6.029,-0.042,0.014,-0.017,103.0,104.0,102.0,13.3,1505.2,328.8,-0.8,1.8,2471.017,13.29,0.044,288.4
2023-02-05T23:16:03,42.805,6.029,-0.031,0.005,-0.005,103.0,103.0,102.0,13.4,1505.2,332.5,-0.8,1.8,2471.0,13.29,0.031,279.2
2023-02-05T23:19:03,42.805,6.029,-0.036,0.003,0.025,104.0,103.0,102.0,13.4,1505.2,318.1,-0.8,1.8,2471.03,13.29,0.036,274.8
2023-02-05T23:22:03,42.805,6.029,-0.03,-0.008,-0.019,105.0,105.0,101.0,13.4,1505.2,321.4,-0.8,1.8,2471.011,13.29,0.031,255.1
2023-02-05T23:25:03,42.805,6.029,-0.015,0.0,-0.019,103.0,102.0,102.0,13.3,1505.2,325.0,-0.8,1.8,2471.001,13.29,0.015,270.0
2023-02-05T23:28:03,42.805,6.029,-0.033,-0.001,-0.001,105.0,104.0,102.0,13.4,1505.2,331.3,-0.7,1.8,2470.995,13.29,0.033,268.3
2023-02-05T23:31:03,42.805,6.029,-0.042,0.01,-0.018,104.0,102.0,103.0,13.4,1505.2,332.1,-0.7,1.8,2470.995,13.29,0.043,283.4
2023-02-05T23:34:03,42.805,6.029,-0.04,0.0,-0.014,104.0,103.0,102.0,13.3,1505.2,319.7,-0.8,1.8,2471.03,13.29,0.04,270.0
2023-02-05T23:37:03,42.805,6.029,-0.017,0.01,0.011,103.0,103.0,102.0,13.4,1505.2,317.1,-0.7,1.8,2470.979,13.29,0.019,300.5
2023-02-05T23:40:03,42.805,6.029,-0.017,0.005,-0.043,103.0,104.0,102.0,13.4,1505.2,333.4,-0.8,1.8,2470.97,13.29,0.017,286.4
2023-02-05T23:43:03,42.805,6.029,-0.027,-0.008,-0.006,103.0,103.0,102.0,13.4,1505.2,319.2,-0.8,1.8,2471.018,13.29,0.028,253.5
2023-02-05T23:46:03,42.805,6.029,-0.018,0.0,-0.006,104.0,104.0,103.0,13.3,1505.2,316.7,-0.8,1.8,2470.978,13.29,0.018,270.0
2023-02-05T23:49:03,42.805,6.029,-0.029,-0.001,0.034,103.0,103.0,102.0,13.4,1505.2,320.9,-0.8,1.8,2470.975,13.29,0.029,268.0
2023-02-05T23:52:03,42.805,6.029,-0.04,0.008,-0.022,103.0,103.0,103.0,13.4,1505.2,322.1,-0.8,1.8,2470.947,13.29,0.04,281.3
2023-02-05T23:55:03,42.805,6.029,-0.024,0.012,-0.002,105.0,104.0,102.0,13.3,1505.2,333.8,-0.8,1.8,2470.989,13.29,0.026,296.6
2023-02-05T23:58:03,42.805,6.029,-0.024,0.016,-0.017,104.0,103.0,102.0,13.4,1505.2,338.5,-0.7,1.8,2470.962,13.29,0.028,303.7
